This demonstration page uses our WeatherBlox Daily Observations layout. Learn more.

38.88101, -77.10428

Hourly Observations for March 17, 2020

Temp ( °F °C ) Dew Point ( °F °C ) Humidity (%) Winds ( mph kmh ) Pressure ( in mb ) Visibility ( mi km ) Precip ( " mm )
12:52 am 00:52 Cloudy 46 7.8 36 2.2 68 68 ESE 7 11 30.33 1027 10 16.0934 0 0
1:52 am 01:52 Cloudy 46 7.8 37 2.8 71 71 SE 6 9 30.31 1026 10 16.0934 0 0
2:52 am 02:52 Cloudy 45 7.2 37 2.8 74 74 SSE 6 9 30.28 1026 10 16.0934 0 0
3:42 am 03:42 Cloudy 45 7.2 37 2.8 74 74 SSE 7 11 30.26 1025 10 16.0934 0 0
3:52 am 03:52 Cloudy 45 7.2 37 2.8 74 74 SSE 6 9 30.26 1025 10 16.0934 0 0
4:52 am 04:52 Cloudy 45 7.2 38 3.3 77 77 SE 7 11 30.23 1024 10 16.0934 0 0
5:52 am 05:52 Cloudy with Light Rain 44 6.7 38 3.3 79 79 SSE 7 11 30.22 1023 10 16.0934 0.001 0.001
6:21 am 06:21 Cloudy 44 6.7 40 4.4 85 85 SE 7 11 30.21 1023 10 16.0934 0.001 0.001
6:47 am 06:47 Cloudy 45 7 39 4 81 81 SE 6 9 30.22 1023 10 16.0934 0.001 0.001
6:52 am 06:52 Cloudy 44 6.7 40 4.4 85 85 SSE 6 9 30.22 1023 10 16.0934 0.001 0.001
7:16 am 07:16 Cloudy 45 7.2 40 4.4 83 83 SSE 3 6 30.22 1023 10 16.0934 0 0
7:52 am 07:52 Cloudy with Light Rain 45 7.2 40 4.4 83 83 S 7 11 30.21 1023 10 16.0934 0.001 0.001
8:52 am 08:52 Cloudy 45 7.2 41 5 86 86 S 6 9 30.21 1023 10 16.0934 0.01 0.254
9:52 am 09:52 Cloudy 47 8.3 42 5.6 83 83 S 7 11 30.21 1023 10 16.0934 0 0
10:52 am 10:52 Mostly Cloudy 48 8.9 43 6.1 83 83 S 8 13 30.19 1022 10 16.0934 0 0
11:08 am 11:08 Mostly Cloudy 49 9.4 43 6.1 80 80 S 7 11 30.19 1022 10 16.0934 0 0
11:52 am 11:52 Mostly Cloudy 51 10.6 44 6.7 77 77 S 8 13 30.17 1022 10 16.0934 0 0
12:52 pm 12:52 Mostly Cloudy 55 12.8 44 6.7 67 67 WSW 7 11 30.16 1022 10 16.0934 0 0
1:52 pm 13:52 Mostly Cloudy 57 13.9 46 7.8 67 67 S 10 17 30.14 1021 10 16.0934 0 0
2:52 pm 14:52 Mostly Cloudy 58 14.4 46 7.8 65 65 S 9 15 30.11 1020 10 16.0934 0 0
3:52 pm 15:52 Partly Cloudy 62 16.7 47 8.3 58 58 SSE 6 9 30.1 1019 10 16.0934 0 0
4:52 pm 16:52 Mostly Cloudy 62 16.7 47 8.3 58 58 S 5 7 30.11 1020 10 16.0934 0 0
5:52 pm 17:52 Mostly Cloudy 63 17.2 47 8.3 56 56 S 3 6 30.12 1020 10 16.0934 0 0
6:52 pm 18:52 Mostly Cloudy 62 16.7 47 8.3 58 58 N 10 17 30.15 1021 10 16.0934 0 0
7:52 pm 19:52 Cloudy 62 16.7 47 8.3 58 58 NNW 8 13 30.17 1022 10 16.0934 0 0
8:52 pm 20:52 Cloudy 59 15 45 7.2 60 60 NNW 16 26 30.23 1024 10 16.0934 0 0
9:52 pm 21:52 Cloudy 57 13.9 43 6.1 60 60 NNW 13 20 30.27 1025 10 16.0934 0 0
10:52 pm 22:52 Partly Cloudy 54 12.2 42 5.6 64 64 NW 9 15 30.29 1026 10 16.0934 0 0
11:52 pm 23:52 Mostly Clear 52 11.1 39 3.9 61 61 NNW 15 24 30.32 1027 10 16.0934 0 0

Powered by AerisWeather